Location: Brivio
(45.7333°N, 9.4500°E)
Time: 20:42:09
(UTC+00:00)

Cosmos 1605 Rocket - Pass Details

Date: 18 October 2019
Orbit: 944 x 1006 km, 82.9° (Epoch: 16 November)

Event Time Altitude Azimuth Distance (km) Brightness Sun altitude
Rises 17:30:55 0° 354° (N) 3,678 7.1 -11.0°
Reaches altitude 10° 17:33:30 10° 358° (N) 2,718 6.3 -11.5°
Maximum altitude 17:39:38 61° 78° (ENE) 1,084 4.0 -12.5°
Drops below altitude 10° 17:45:39 10° 158° (SSE) 2,665 6.1 -13.6°
Sets 17:48:09 0° 162° (SSE) 3,602 6.8 -14.0°
